1483491600.63,35825,8.88,71980.3,-10.95,-13.19,-14.19,0,*63
1483491601.93,35826,8.88,71972.3,-10.95,-12.79,-13.61,0,*6F
1483491603.22,35827,8.88,71986.8,-10.95,-12.65,-13.33,0,*64
1483491604.46,35828,8.88,71958.8,-10.93,-12.57,-13.19,0,*64
1483491605.68,35829,8.88,71964.3,-10.93,-12.47,-13.19,0,*64
1483491606.94,35830,8.88,71934.5,-10.95,-12.61,-13.51,0,*62
1483491608.2,35831,8.88,71936.3,-10.93,-12.61,-13.61,0,*66
1483491609.43,35832,8.88,71926.3,-10.93,-12.71,-13.47,0,*60
1483491610.69,35833,8.88,71922.3,-10.91,-12.75,-13.47,0,*67
1483491611.98,35834,8.88,71896.3,-10.91,-12.61,-13.29,0,*6D
1483491613.21,35835,8.88,71890.5,-10.93,-12.57,-13.07,0,*67
1483491614.44,35836,8.88,71922.8,-10.93,-12.47,-13.01,0,*63
1483491615.68,35837,8.88,71960.5,-10.93,-12.35,-12.89,0,*66
1483491616.92,35838,8.88,71978.5,-10.93,-12.29,-12.61,0,*62
1483491618.16,35839,8.88,71990.0,-10.93,-12.21,-12.61,0,*6B
1483491619.4,35840,8.88,71970.8,-10.93,-12.21,-12.61,0,*65
1483491620.65,35841,8.88,71990.5,-10.93,-12.21,-12.57,0,*61
1483491621.91,35842,8.88,71982.0,-10.91,-12.15,-12.43,0,*62
1483491623.18,35843,8.88,71980.0,-10.91,-12.07,-12.29,0,*6C
1483491624.45,35844,8.88,71970.0,-10.91,-12.07,-12.29,0,*6B
1483491625.7,35845,8.88,71966.5,-10.91,-12.03,-12.29,0,*6E
1483491626.94,35846,8.88,71968.8,-10.91,-12.03,-12.21,0,*65
1483491628.2,35847,8.88,71964.8,-10.89,-11.89,-12.15,0,*6B
1483491629.44,35848,8.88,71958.8,-10.89,-11.89,-12.25,0,*67
1483491630.72,35849,8.88,71924.3,-10.91,-11.93,-12.21,0,*60
1483491632.0,35850,8.88,71938.3,-10.91,-11.93,-12.29,0,*60
1483491633.24,35851,8.88,71956.5,-10.91,-12.03,-12.29,0,*6B
1483491634.48,35852,8.88,71944.0,-10.89,-12.03,-12.35,0,*6C
1483491635.75,35853,8.88,71964.0,-10.91,-12.03,-12.35,0,*64
1483491637.02,35854,8.88,71974.0,-10.91,-11.93,-12.29,0,*64
1483491638.27,35855,8.88,71982.8,-10.91,-12.03,-12.21,0,*67
1483491639.53,35856,8.88,71994.3,-10.89,-11.97,-12.15,0,*64
1483491640.77,35857,8.88,71990.0,-10.93,-11.89,-12.29,0,*6E
1483491642.04,35858,8.88,72006.0,-10.91,-12.03,-12.35,0,*6F
1483491643.31,35859,8.88,71968.3,-10.91,-11.93,-12.47,0,*61
1483491644.6,35860,8.88,71960.3,-10.91,-12.15,-12.57,0,*67
1483491645.9,35861,8.88,71966.8,-10.91,-12.15,-12.71,0,*62
1483491647.18,35862,8.88,71980.0,-10.91,-12.21,-12.79,0,*6E
1483491648.41,35863,8.88,71976.0,-10.91,-12.43,-13.07,0,*63
1483491649.66,35864,8.88,71982.8,-10.91,-12.43,-13.19,0,*6B
1483491650.95,35865,8.88,71980.5,-10.91,-12.57,-13.33,0,*67
1483491652.21,35866,8.88,71970.3,-10.91,-12.71,-13.43,0,*67
1483491653.51,35867,8.88,71966.8,-10.91,-12.75,-13.61,0,*62
1483491654.74,35868,8.88,71962.5,-10.89,-12.71,-13.69,0,*68
1483491656.0,35869,8.88,71962.5,-10.91,-12.93,-13.79,0,*6D
1483491657.27,35870,8.88,71948.8,-10.89,-12.83,-13.61,0,*64
1483491658.5,35871,8.88,71942.3,-10.91,-12.89,-13.47,0,*62
1483491659.76,35872,8.88,71944.3,-10.91,-12.79,-13.43,0,*6A
1483491661.02,35873,8.88,71944.5,-10.91,-12.75,-13.07,0,*67
1483491662.32,35874,8.88,71948.5,-10.91,-12.61,-12.75,0,*61
1483491663.55,35875,8.88,71960.8,-10.93,-12.47,-12.61,0,*63
1483491664.82,35876,8.88,71976.0,-10.91,-12.43,-12.57,0,*63
1483491666.09,35877,8.88,71984.3,-10.91,-12.35,-12.29,0,*6A
1483491667.34,35878,8.88,71988.3,-10.91,-12.29,-12.21,0,*60
1483491668.63,35879,8.88,71998.5,-10.91,-12.07,-12.07,0,*69
1483491669.93,35880,8.88,72004.0,-10.91,-11.93,-11.93,0,*6F
1483491671.21,35881,8.88,72002.0,-10.91,-11.93,-12.03,0,*64
1483491672.5,35882,8.88,72010.8,-10.91,-11.89,-11.93,0,*66
1483491673.76,35883,8.88,72000.5,-10.89,-11.85,-11.97,0,*66
1483491675.06,35884,8.88,71994.3,-10.91,-11.81,-11.93,0,*68
1483491676.35,35885,8.88,71994.8,-10.91,-11.81,-12.07,0,*67
1483491677.64,35886,8.88,71998.8,-10.91,-11.89,-12.15,0,*6F
1483491678.87,35887,8.88,72010.0,-10.89,-11.85,-12.25,0,*68
1483491680.11,35888,8.88,72016.8,-10.93,-11.89,-12.43,0,*60
1483491681.35,35889,8.88,72000.5,-10.91,-12.03,-12.47,0,*66
1483491682.62,35890,8.88,71996.8,-10.89,-11.89,-12.53,0,*63
1483491683.9,35891,8.88,71986.8,-10.91,-12.21,-12.75,0,*6E
1483491685.14,35892,8.88,71958.8,-10.91,-12.29,-12.89,0,*66
1483491686.36,35893,8.88,71956.3,-10.89,-12.29,-12.97,0,*61
1483491687.61,35894,8.88,71966.0,-10.91,-12.43,-13.19,0,*64
1483491688.87,35895,8.88,71982.8,-10.91,-12.47,-13.29,0,*62
1483491690.14,35896,8.88,72002.3,-10.91,-12.47,-13.29,0,*61
1483491691.41,35897,8.88,71994.5,-10.91,-12.57,-13.19,0,*62
1483491692.68,35898,8.88,72010.0,-10.91,-12.57,-13.19,0,*6D
1483491693.93,35899,8.88,72010.0,-10.91,-12.47,-13.19,0,*6D
1483491695.17,35900,8.88,72012.3,-10.89,-12.53,-13.23,0,*69
1483491696.41,35901,8.88,71964.8,-10.89,-12.53,-13.23,0,*68
1483491697.68,35902,8.88,71978.5,-10.91,-12.57,-13.07,0,*60
1483491698.96,35903,8.88,71968.0,-10.91,-12.57,-13.01,0,*67
1483491700.23,35904,8.88,71962.5,-10.89,-12.53,-13.01,0,*6D
1483491701.49,35905,8.88,71926.8,-10.89,-12.53,-13.29,0,*66
1483491702.75,35906,8.88,71930.8,-10.91,-12.71,-13.47,0,*64
1483491704.04,35907,8.88,71956.5,-10.91,-12.79,-13.61,0,*69
1483491705.25,35908,8.88,71962.8,-10.89,-12.89,-13.69,0,*68
1483491706.54,35909,8.88,71976.8,-10.91,-13.01,-13.87,0,*61
1483491707.81,35910,8.88,71980.8,-10.91,-13.07,-14.01,0,*66
1483491709.05,35911,8.88,71990.0,-10.91,-13.19,-14.29,0,*62
1483491710.34,35912,8.88,72002.0,-10.91,-13.33,-14.43,0,*65
1483491711.57,35913,8.88,71996.8,-10.89,-13.43,-14.43,0,*6A
1483491712.81,35914,8.88,71990.0,-10.91,-13.47,-14.33,0,*67
1483491714.07,35915,8.88,71988.8,-10.91,-13.33,-14.19,0,*6D
1483491715.34,35916,8.88,71984.5,-10.91,-13.33,-14.19,0,*6E
1483491716.6,35917,8.88,71988.0,-10.91,-13.33,-14.15,0,*63
1483491717.87,35918,8.88,71990.3,-10.91,-13.29,-14.19,0,*6B
1483491719.14,35919,8.88,71996.3,-10.91,-13.29,-14.29,0,*69
1483491720.42,35920,8.88,72002.0,-10.91,-13.29,-14.43,0,*6F
1483491721.69,35921,8.88,72014.3,-10.91,-13.47,-14.75,0,*63
1483491722.93,35922,8.88,72008.8,-10.91,-13.47,-14.65,0,*61
1483491724.19,35923,8.88,71994.0,-10.93,-13.61,-14.47,0,*66
1483491725.43,35924,8.88,71980.0,-10.93,-13.61,-14.61,0,*65
1483491726.67,35925,8.88,71978.3,-10.93,-13.65,-14.47,0,*64
1483491727.88,35926,8.88,71982.0,-10.93,-13.47,-14.29,0,*6F
1483491729.09,35927,8.88,71972.0,-10.93,-13.43,-14.15,0,*65
1483491730.33,35928,8.88,71960.5,-10.93,-13.33,-14.19,0,*61
1483491731.54,35929,8.88,71970.0,-10.93,-13.43,-14.19,0,*67
1483491732.8,35930,8.88,71978.0,-10.95,-13.37,-14.23,0,*63
1483491734.07,35931,8.88,71976.3,-10.93,-13.29,-14.05,0,*6F
1483491735.34,35932,8.88,71990.3,-10.95,-13.19,-14.01,0,*6D
1483491736.6,35933,8.88,71996.8,-10.95,-13.11,-14.05,0,*60
1483491737.84,35934,8.88,72000.5,-10.95,-13.19,-14.11,0,*6A
1483491739.11,35935,8.88,71996.8,-10.95,-13.11,-14.05,0,*66
1483491740.34,35936,8.88,72000.8,-10.95,-13.11,-13.93,0,*6D
1483491741.6,35937,8.88,72006.3,-10.95,-13.11,-13.83,0,*6D
1483491742.86,35938,8.88,72000.8,-10.93,-13.01,-13.87,0,*61
1483491744.11,35939,8.88,71990.8,-10.93,-13.01,-13.79,0,*61
1483491745.35,35940,8.88,71984.3,-10.93,-13.01,-13.65,0,*62
1483491746.56,35941,8.88,71974.3,-10.93,-12.89,-13.55,0,*61
1483491747.82,35942,8.88,71972.0,-10.93,-12.75,-13.29,0,*6A
1483491749.08,35943,8.88,71962.5,-10.93,-12.57,-13.01,0,*61
1483491750.31,35944,8.88,71956.5,-10.93,-12.43,-12.79,0,*6D
1483491751.58,35945,8.81,71966.0,-10.93,-12.35,-12.79,0,*6D
1483491752.79,35946,8.88,71900.5,-10.93,-12.43,-12.93,0,*6B
1483491754.03,35947,8.88,71888.5,-10.91,-12.43,-13.07,0,*64
1483491755.26,35948,8.88,71928.3,-10.91,-12.47,-13.07,0,*6F
1483491756.5,35949,8.88,71936.0,-10.91,-12.47,-13.07,0,*6E
1483491757.73,35950,8.88,71938.8,-10.93,-12.57,-13.07,0,*65
1483491759.01,35951,8.81,71956.0,-10.91,-12.57,-13.19,0,*69
1483491760.24,35952,8.88,71960.8,-10.89,-12.57,-13.11,0,*6B
1483491761.53,35953,8.88,71954.3,-10.91,-12.61,-13.29,0,*6D
1483491762.79,35954,8.88,71968.5,-10.91,-12.57,-13.07,0,*63
1483491764.04,35955,8.88,71960.0,-10.91,-12.47,-12.93,0,*6F
1483491765.28,35956,8.88,71966.3,-10.91,-12.43,-12.89,0,*63
1483491766.55,35957,8.88,71970.5,-10.91,-12.35,-12.89,0,*63
1483491767.79,35958,8.88,71962.8,-10.91,-12.43,-12.93,0,*66
1483491769.05,35959,8.88,71964.8,-10.91,-12.47,-13.01,0,*69
1483491770.26,35960,8.88,71960.5,-10.89,-12.39,-12.97,0,*6D
1483491771.51,35961,8.88,71970.5,-10.91,-12.43,-12.93,0,*6C
1483491772.74,35962,8.88,71962.0,-10.91,-12.47,-13.07,0,*67
1483491773.95,35963,8.88,71958.3,-10.89,-12.43,-13.15,0,*68
1483491775.21,35964,8.88,71958.0,-10.91,-12.57,-13.43,0,*60
1483491776.47,35965,8.88,71968.8,-10.91,-12.61,-13.47,0,*60
1483491777.7,35966,8.88,71970.8,-10.89,-12.57,-13.43,0,*6B
1483491779.0,35967,8.88,71972.0,-10.91,-12.71,-13.61,0,*67
1483491780.26,35968,8.88,71976.5,-10.91,-12.79,-13.73,0,*63
1483491781.54,35969,8.88,71990.5,-10.91,-12.79,-13.79,0,*68
1483491782.82,35970,8.88,71998.5,-10.91,-12.79,-13.79,0,*60
1483491784.11,35971,8.88,71988.5,-10.91,-12.75,-13.79,0,*6D
1483491785.39,35972,8.88,71984.5,-10.91,-12.79,-13.79,0,*62
1483491786.68,35973,8.88,71994.8,-10.91,-12.75,-13.79,0,*6F
1483491787.92,35974,8.88,72002.3,-10.91,-12.93,-14.29,0,*62
1483491789.21,35975,8.88,71990.3,-10.91,-13.01,-14.43,0,*65
1483491790.45,35976,8.88,71986.5,-10.91,-13.15,-14.33,0,*64
1483491791.65,35977,8.88,71976.5,-10.89,-13.15,-14.33,0,*6C
1483491792.92,35978,8.88,71976.8,-10.91,-13.29,-14.19,0,*6D
1483491794.19,35979,8.88,71962.5,-10.91,-13.19,-13.87,0,*6F
1483491795.42,35980,8.88,71966.5,-10.91,-13.15,-13.73,0,*6E
1483491796.66,35981,8.88,71980.3,-10.91,-13.07,-13.73,0,*6C
1483491797.89,35982,8.88,71988.3,-10.89,-13.01,-13.43,0,*63
1483491799.15,35983,8.88,71992.3,-10.91,-13.01,-13.47,0,*6F
1483491800.39,35984,8.88,71998.8,-10.91,-12.93,-13.47,0,*62
1483491801.66,35985,8.88,72000.8,-10.91,-12.79,-13.19,0,*6C
1483491802.93,35986,8.88,72006.5,-10.91,-12.75,-12.89,0,*6B
1483491804.23,35987,8.88,72004.8,-10.91,-12.61,-12.71,0,*68
1483491805.49,35988,8.88,72010.3,-10.91,-12.47,-12.61,0,*62
1483491806.76,35989,8.88,72010.0,-10.91,-12.35,-12.43,0,*66
1483491808.04,35990,8.88,72002.0,-10.91,-12.21,-12.35,0,*6A
1483491809.3,35991,8.88,72004.0,-10.89,-12.07,-12.15,0,*64
1483491810.56,35992,8.88,71986.8,-10.89,-11.73,-11.77,0,*60
1483491811.85,35993,8.88,71990.0,-10.91,-11.63,-11.81,0,*60
1483491813.14,35994,8.88,71968.5,-10.91,-11.59,-11.81,0,*6E
1483491814.38,35995,8.88,71954.0,-10.89,-11.41,-11.77,0,*66
1483491815.62,35996,8.88,71958.8,-10.89,-11.41,-11.77,0,*65
1483491816.86,35997,8.88,71940.5,-10.89,-11.41,-11.77,0,*64
1483491818.11,35998,8.88,71938.5,-10.89,-11.45,-11.85,0,*62
1483491819.37,35999,8.88,71976.3,-10.89,-11.59,-12.11,0,*60
1483491820.64,36000,8.88,71998.0,-10.83,-11.67,-12.39,0,*67
1483491821.93,36001,8.88,71984.0,-10.87,-11.89,-12.65,0,*6B
1483491823.23,36002,8.88,71988.8,-10.87,-11.97,-12.71,0,*62
1483491824.53,36003,8.88,71984.3,-10.87,-12.11,-12.71,0,*6E
1483491825.82,36004,8.88,71970.3,-10.87,-12.15,-12.75,0,*69
1483491827.11,36005,8.88,71982.3,-10.83,-12.07,-12.65,0,*6E
1483491828.41,36006,8.88,71986.5,-10.83,-12.07,-12.71,0,*68
1483491829.67,36007,8.88,71986.0,-10.87,-12.25,-13.01,0,*6B
1483491830.92,36008,8.88,71960.3,-10.87,-12.29,-13.15,0,*6D
1483491832.15,36009,8.88,71960.3,-10.87,-12.39,-13.23,0,*68
1483491833.42,36010,8.88,71930.0,-10.87,-12.71,-13.43,0,*6A
1483491834.68,36011,8.88,71930.0,-10.83,-12.61,-12.93,0,*62
1483491835.95,36012,8.88,71936.0,-10.87,-12.43,-12.83,0,*64
1483491837.19,36013,8.88,71934.3,-10.83,-12.47,-12.97,0,*60
1483491838.43,36014,8.88,71954.0,-10.83,-12.47,-12.93,0,*63
1483491839.73,36015,8.88,71958.5,-10.83,-12.53,-12.83,0,*66
1483491840.99,36016,8.88,71940.3,-10.87,-12.43,-12.75,0,*69
1483491842.26,36017,8.88,71946.0,-10.83,-12.25,-12.83,0,*65
1483491843.54,36018,8.88,71964.0,-10.83,-12.35,-13.19,0,*69
1483491844.78,36019,8.88,71982.5,-10.83,-12.39,-13.23,0,*6D
1483491846.01,36020,8.88,71986.0,-10.83,-12.39,-13.23,0,*67
1483491847.28,36021,8.88,71980.8,-10.83,-12.47,-13.37,0,*6A
1483491848.57,36022,8.88,71982.3,-10.87,-12.53,-13.37,0,*68
1483491849.83,36023,8.88,71976.8,-10.83,-12.39,-13.37,0,*61
1483491851.1,36024,8.88,71964.3,-10.87,-12.53,-13.43,0,*6D
1483491852.39,36025,8.88,71972.3,-10.83,-12.53,-13.37,0,*6B
1483491853.68,36026,8.88,71974.8,-10.83,-12.53,-13.33,0,*6C
1483491854.97,36027,8.88,71982.5,-10.83,-12.53,-13.37,0,*69
1483491856.24,36028,8.88,71976.8,-10.83,-12.61,-13.51,0,*67
1483491857.47,36029,8.88,71982.3,-10.81,-12.61,-13.47,0,*63
1483491858.68,36030,8.88,71986.3,-10.81,-12.39,-13.11,0,*65
1483491859.93,36031,8.88,71970.5,-10.81,-12.35,-12.97,0,*67
1483491861.17,36032,8.88,71976.5,-10.81,-12.35,-13.23,0,*6A
1483491862.41,36033,8.88,71978.3,-10.81,-12.47,-13.37,0,*6B
1483491863.69,36034,8.88,71958.0,-10.79,-12.61,-13.79,0,*65
1483491864.92,36035,8.88,71968.3,-10.81,-12.83,-14.19,0,*6E
1483491866.19,36036,8.88,71958.8,-10.79,-13.01,-14.15,0,*6D
1483491867.43,36037,8.88,71952.3,-10.81,-13.33,-14.33,0,*6E
1483491868.7,36038,8.88,71980.8,-10.81,-13.37,-14.55,0,*65
1483491869.94,36039,8.88,71948.0,-10.81,-13.33,-14.37,0,*64
1483491871.18,36040,8.88,71950.8,-10.81,-13.33,-14.33,0,*6E
1483491872.43,36041,8.88,71966.3,-10.79,-13.19,-14.19,0,*68
1483491873.69,36042,8.88,71962.8,-10.79,-13.19,-13.87,0,*6B
1483491874.9,36043,8.88,71960.5,-10.81,-13.07,-13.65,0,*6E
1483491876.11,36044,8.88,71968.5,-10.81,-12.97,-13.47,0,*61
1483491877.34,36045,8.88,71948.3,-10.81,-12.93,-13.19,0,*6F
1483491878.61,36046,8.88,71952.5,-10.81,-12.65,-12.79,0,*62
1483491879.85,36047,8.88,71942.5,-10.79,-12.43,-12.47,0,*6D
1483491881.1,36048,8.88,71960.0,-10.81,-12.25,-12.53,0,*60
1483491882.34,36049,8.88,71940.8,-10.79,-12.21,-12.43,0,*63
1483491883.61,36050,8.88,71954.0,-10.81,-11.85,-12.11,0,*66
1483491884.86,36051,8.88,71962.5,-10.81,-11.93,-12.21,0,*63
1483491886.13,36052,8.88,71972.3,-10.79,-11.81,-12.29,0,*6C
1483491887.4,36053,8.88,71970.5,-10.81,-11.85,-12.35,0,*63
1483491888.69,36054,8.88,71970.0,-10.79,-11.81,-12.35,0,*67
1483491889.94,36055,8.88,71978.0,-10.81,-11.93,-12.47,0,*67
1483491891.23,36056,8.88,71974.5,-10.79,-11.93,-12.57,0,*62
1483491892.5,36057,8.88,71972.3,-10.79,-12.03,-12.75,0,*69
1483491893.74,36058,8.88,71968.0,-10.81,-12.35,-13.07,0,*60
1483491895.0,36059,8.88,71960.8,-10.79,-12.35,-13.07,0,*66
1483491896.27,36060,8.88,71974.8,-10.79,-12.35,-13.07,0,*6C
1483491897.55,36061,8.88,71968.3,-10.79,-12.35,-13.01,0,*6B
1483491898.81,36062,8.88,71978.3,-10.79,-12.43,-13.01,0,*69
1483491900.08,36063,8.88,71974.0,-10.79,-12.35,-12.89,0,*68
1483491901.36,36064,8.88,71976.5,-10.79,-12.21,-12.79,0,*65
1483491902.62,36065,8.88,71966.5,-10.79,-12.29,-12.65,0,*61
1483491903.87,36066,8.88,71976.8,-10.79,-12.29,-12.47,0,*62
1483491905.16,36067,8.88,71962.8,-10.79,-12.07,-12.35,0,*6A
1483491906.43,36068,8.88,71952.8,-10.79,-12.07,-12.29,0,*68
1483491907.7,36069,8.88,71966.3,-10.79,-12.03,-12.07,0,*61
1483491908.96,36070,8.88,71964.8,-10.79,-11.81,-12.03,0,*64
1483491910.25,36071,8.88,71956.0,-10.79,-11.89,-11.89,0,*6C
1483491911.55,36072,8.88,71954.5,-10.79,-11.89,-11.89,0,*6F
1483491912.81,36073,8.88,71932.0,-10.81,-11.85,-11.97,0,*6A
1483491914.08,36074,8.88,71930.5,-10.79,-11.77,-12.03,0,*69
1483491915.37,36075,8.88,71924.3,-10.79,-11.77,-12.07,0,*6C
1483491916.64,36076,8.88,71914.5,-10.79,-11.67,-12.03,0,*6A
1483491917.93,36077,8.88,71900.8,-10.79,-11.77,-12.07,0,*6E
1483491919.2,36078,8.88,71900.3,-10.79,-11.77,-12.21,0,*65
1483491920.44,36079,8.88,71904.8,-10.79,-12.03,-12.43,0,*60
1483491921.71,36080,8.88,71888.5,-10.81,-11.97,-12.35,0,*6E
1483491922.95,36081,8.88,71890.0,-10.79,-12.03,-12.29,0,*6B
1483491924.22,36082,8.88,71908.5,-10.79,-12.07,-12.43,0,*60
1483491925.51,36083,8.88,71922.3,-10.79,-11.77,-12.15,0,*66
1483491926.81,36084,8.88,71910.8,-10.79,-11.63,-11.89,0,*62
1483491928.05,36085,8.88,71900.8,-10.77,-11.63,-12.03,0,*6C
1483491929.28,36086,8.88,71904.5,-10.77,-11.89,-12.29,0,*63
1483491930.52,36087,8.88,71908.3,-10.79,-12.03,-12.43,0,*61
1483491931.79,36088,8.88,71918.5,-10.79,-12.07,-12.47,0,*6E
1483491933.08,36089,8.88,71948.8,-10.79,-12.07,-12.57,0,*6E
1483491934.37,36090,8.88,71962.3,-10.79,-12.15,-12.57,0,*65
1483491935.61,36091,8.88,71966.8,-10.77,-12.15,-12.47,0,*6B
1483491936.85,36092,8.88,71972.8,-10.77,-12.15,-12.47,0,*68
1483491938.09,36093,8.88,71950.3,-10.79,-12.03,-12.47,0,*60
1483491939.35,36094,8.88,71950.8,-10.79,-12.03,-12.61,0,*63
1483491940.62,36095,8.88,71948.3,-10.75,-12.03,-12.61,0,*6E
1483491941.87,36096,8.88,71968.0,-10.77,-12.15,-12.65,0,*6C
1483491943.17,36097,8.88,71962.8,-10.75,-12.15,-12.57,0,*6E
1483491944.44,36098,8.88,71958.0,-10.75,-12.15,-12.43,0,*64
1483491945.65,36099,8.88,71954.3,-10.77,-12.29,-12.47,0,*6C
1483491946.9,36100,8.88,71960.8,-10.77,-12.21,-12.35,0,*60
1483491948.16,36101,8.88,71948.0,-10.77,-12.07,-12.35,0,*65
1483491949.4,36102,8.88,71956.0,-10.77,-12.07,-12.29,0,*6B
1483491950.65,36103,8.88,71950.8,-10.77,-11.93,-12.21,0,*6C
1483491951.91,36104,8.88,71948.5,-10.77,-11.93,-12.15,0,*6C
1483491953.18,36105,8.88,71960.8,-10.77,-11.93,-12.07,0,*6E
1483491954.44,36106,8.88,71962.3,-10.77,-11.81,-12.07,0,*6E
1483491955.68,36107,8.88,71968.8,-10.77,-11.81,-12.03,0,*6B
1483491956.91,36108,8.88,71968.8,-10.77,-11.89,-12.03,0,*6C
1483491958.15,36109,8.88,71972.8,-10.77,-11.77,-12.03,0,*6C
1483491959.41,36110,8.88,71970.5,-10.77,-11.77,-11.89,0,*65
1483491960.68,36111,8.88,71972.3,-10.77,-11.63,-11.85,0,*6D
1483491961.94,36112,8.88,71972.8,-10.77,-11.67,-11.77,0,*67
1483491963.2,36113,8.88,71970.5,-10.77,-11.67,-11.67,0,*67
1483491964.47,36114,8.88,71972.0,-10.77,-11.63,-11.67,0,*64
1483491965.73,36115,8.88,71972.5,-10.77,-11.63,-11.63,0,*61
1483491967.0,36116,8.88,71978.3,-10.77,-11.63,-11.63,0,*62
1483491968.27,36117,8.88,71964.0,-10.77,-11.59,-11.63,0,*6A
1483491969.54,36118,8.88,71968.5,-10.77,-11.59,-11.63,0,*65
1483491970.78,36119,8.88,71964.8,-10.77,-11.45,-11.59,0,*60
1483491972.04,36120,8.88,71960.0,-10.77,-11.51,-11.59,0,*6F
1483491973.31,36121,8.88,71962.3,-10.75,-11.45,-11.55,0,*65
1483491974.59,36122,8.88,71964.5,-10.75,-11.41,-11.55,0,*62
1483491975.83,36123,8.88,71966.0,-10.75,-11.41,-11.45,0,*62
1483491977.07,36124,8.88,71966.3,-10.77,-11.45,-11.59,0,*6E
1483491978.34,36125,8.88,71948.3,-10.75,-11.41,-11.59,0,*69
1483491979.64,36126,8.88,71964.8,-10.75,-11.55,-11.59,0,*6F
1483491980.91,36127,8.88,71958.3,-10.75,-11.45,-11.55,0,*63
1483491982.18,36128,8.88,71970.8,-10.77,-11.51,-11.63,0,*6E
1483491983.45,36129,8.88,71940.3,-10.75,-11.45,-11.59,0,*61
1483491984.72,36130,8.88,71922.0,-10.75,-11.45,-11.59,0,*69
1483491986.01,36131,8.88,71908.5,-10.75,-11.55,-11.59,0,*69
1483491987.31,36132,8.88,71904.5,-10.75,-11.59,-11.63,0,*6F
1483491988.6,36133,8.88,71926.5,-10.75,-11.59,-11.73,0,*6F
1483491989.9,36134,8.88,71934.8,-10.75,-11.59,-11.63,0,*69
1483491991.16,36135,8.88,71944.0,-10.77,-11.63,-11.77,0,*66
1483491992.45,36136,8.88,71952.0,-10.75,-11.73,-11.77,0,*66
1483491993.74,36137,8.88,71952.0,-10.75,-11.63,-11.85,0,*6B
1483491995.04,36138,8.88,71942.0,-10.75,-11.63,-11.85,0,*64
1483491996.33,36139,8.88,71940.0,-10.75,-11.73,-11.89,0,*68
1483491997.59,36140,8.88,71952.5,-10.75,-11.73,-12.03,0,*67
1483491998.88,36141,8.81,71964.3,-10.75,-11.73,-12.15,0,*61
1483492000.17,36142,8.88,71962.0,-10.75,-11.85,-12.15,0,*6B
1483492001.44,36143,8.81,71964.0,-10.75,-11.89,-12.39,0,*68
1483492002.7,36144,8.88,71956.3,-10.75,-11.97,-12.43,0,*6D
1483492003.94,36145,8.81,71948.0,-10.77,-12.03,-12.53,0,*61
1483492005.22,36146,8.88,71930.8,-10.75,-12.25,-12.75,0,*60
1483492006.46,36147,8.88,71964.5,-10.75,-12.39,-12.89,0,*6F
1483492007.72,36148,8.88,71986.8,-10.75,-12.39,-12.83,0,*6A
1483492008.99,36149,8.88,71974.8,-10.75,-12.39,-12.61,0,*67
1483492010.19,36150,8.81,71998.5,-10.77,-12.43,-12.47,0,*64
1483492011.44,36151,8.88,71994.5,-10.77,-12.21,-12.35,0,*64
1483492012.71,36152,8.88,71996.8,-10.75,-12.03,-12.15,0,*67
1483492013.97,36153,8.88,71996.5,-10.77,-12.07,-12.07,0,*63
1483492015.24,36154,8.88,71992.0,-10.77,-11.93,-11.93,0,*64
1483492016.53,36155,8.81,71992.3,-10.75,-11.85,-11.85,0,*67
1483492017.82,36156,8.88,72004.5,-10.75,-11.77,-11.77,0,*64
1483492019.08,36157,8.88,72012.3,-10.77,-11.67,-11.77,0,*66
1483492020.34,36158,8.88,71990.3,-10.77,-11.67,-11.67,0,*68
1483492021.64,36159,8.88,71972.8,-10.75,-11.59,-11.63,0,*62
1483492022.91,36160,8.81,71966.5,-10.77,-11.59,-11.63,0,*6A
1483492024.21,36161,8.88,71958.0,-10.75,-11.59,-11.63,0,*69
1483492025.47,36162,8.88,71950.3,-10.77,-11.63,-11.67,0,*65
1483492026.74,36163,8.88,71966.5,-10.77,-11.67,-11.67,0,*60
1483492028.0,36164,8.81,71962.0,-10.77,-11.67,-11.67,0,*67
1483492029.29,36165,8.81,71956.5,-10.75,-11.63,-11.73,0,*65
1483492030.59,36166,8.88,71970.5,-10.75,-11.59,-11.73,0,*6F
1483492031.88,36167,8.81,71988.0,-10.75,-11.59,-11.73,0,*6E
1483492033.17,36168,8.88,71986.0,-10.75,-11.59,-11.73,0,*61
1483492034.43,36169,8.88,71990.8,-10.77,-11.67,-11.77,0,*6B
1483492035.7,36170,8.88,71972.5,-10.77,-11.67,-11.67,0,*62
1483492036.99,36171,8.88,71954.3,-10.75,-11.63,-11.73,0,*60
1483492038.28,36172,8.88,71950.0,-10.75,-11.63,-11.85,0,*6A
1483492039.54,36173,8.88,71954.0,-10.77,-11.67,-11.77,0,*60
1483492040.83,36174,8.81,71962.3,-10.75,-11.73,-11.77,0,*60
1483492042.12,36175,8.88,71970.8,-10.75,-11.73,-11.77,0,*61
1483492043.41,36176,8.81,71978.3,-10.75,-11.63,-11.77,0,*63
1483492044.7,36177,8.81,71976.0,-10.75,-11.63,-11.73,0,*66
1483492045.99,36178,8.81,71976.0,-10.75,-11.73,-11.77,0,*6C
1483492047.27,36179,8.88,71972.0,-10.75,-11.73,-11.85,0,*60
1483492048.53,36180,8.88,71990.5,-10.77,-11.81,-11.81,0,*6D
1483492049.82,36181,8.81,71978.0,-10.75,-11.63,-11.77,0,*6B
1483492051.11,36182,8.88,71994.8,-10.75,-11.63,-11.77,0,*68
1483492052.4,36183,8.88,71972.3,-10.75,-11.63,-11.77,0,*69
1483492053.69,36184,8.81,71972.5,-10.75,-11.63,-11.77,0,*6E
1483492054.95,36185,8.88,71994.5,-10.77,-11.67,-11.77,0,*69
1483492056.25,36186,8.88,71970.0,-10.75,-11.63,-11.63,0,*69
1483492057.55,36187,8.88,71980.5,-10.75,-11.59,-11.63,0,*61
1483492058.85,36188,8.88,71990.0,-10.75,-11.59,-11.63,0,*6E
1483492060.15,36189,8.88,71986.0,-10.75,-11.59,-11.63,0,*6F
1483492061.44,36190,8.88,71988.3,-10.75,-11.59,-11.73,0,*66
1483492062.7,36191,8.81,71968.0,-10.77,-11.63,-11.77,0,*68
1483492063.99,36192,8.88,71968.0,-10.75,-11.59,-11.73,0,*64
1483492065.29,36193,8.81,71964.0,-10.75,-11.63,-11.73,0,*6C
1483492066.58,36194,8.88,71986.8,-10.75,-11.63,-11.85,0,*62
1483492067.87,36195,8.81,71968.8,-10.75,-11.63,-11.77,0,*6E
1483492069.16,36196,8.81,71956.3,-10.75,-11.77,-11.77,0,*68
1483492070.45,36197,8.88,71968.5,-10.75,-11.63,-11.85,0,*61
1483492071.75,36198,8.81,71984.8,-10.75,-11.63,-11.63,0,*66
1483492073.05,36199,8.81,71968.5,-10.75,-11.63,-11.63,0,*67
1483492074.35,36200,8.88,71958.3,-10.75,-11.63,-11.63,0,*64
1483492075.62,36201,8.88,71982.0,-10.77,-11.63,-11.67,0,*63
1483492076.92,36202,8.81,71968.8,-10.75,-11.59,-11.63,0,*6F
1483492078.21,36203,8.88,71970.5,-10.75,-11.63,-11.67,0,*63
1483492079.51,36204,8.81,71956.0,-10.75,-11.63,-11.73,0,*61
1483492080.8,36205,8.81,71926.8,-10.75,-11.55,-11.59,0,*6D
1483492082.08,36206,8.88,71906.5,-10.75,-11.45,-11.55,0,*63
1483492083.34,36207,8.88,71936.5,-10.77,-11.59,-11.63,0,*68
1483492084.64,36208,8.81,71910.3,-10.75,-11.59,-11.59,0,*6C
1483492085.93,36209,8.81,71938.8,-10.75,-11.55,-11.59,0,*61
1483492087.2,36210,8.81,71944.3,-10.77,-11.63,-11.63,0,*67
1483492088.49,36211,8.81,71930.3,-10.75,-11.59,-11.59,0,*64
1483492089.78,36212,8.81,71940.8,-10.75,-11.55,-11.59,0,*6B
1483492091.08,36213,8.88,71944.0,-10.75,-11.59,-11.59,0,*66
1483492092.37,36214,8.88,71956.3,-10.75,-11.55,-11.59,0,*6D
1483492093.66,36215,8.88,71964.0,-10.75,-11.59,-11.59,0,*60
1483492094.96,36216,8.88,71952.8,-10.75,-11.55,-11.59,0,*6F
1483492096.25,36217,8.81,71958.3,-10.75,-11.55,-11.59,0,*6E
1483492097.54,36218,8.81,71942.8,-10.75,-11.59,-11.59,0,*6D
1483492098.82,36219,8.81,71928.0,-10.73,-11.59,-11.63,0,*63
1483492100.09,36220,8.81,71928.0,-10.73,-11.55,-11.59,0,*6C
1483492101.36,36221,8.88,71928.0,-10.73,-11.55,-11.59,0,*6D
1483492102.62,36222,8.81,71960.3,-10.73,-11.55,-11.59,0,*6E
1483492103.9,36223,8.88,71962.8,-10.73,-11.59,-11.63,0,*6A
1483492105.18,36224,8.81,71944.8,-10.73,-11.59,-11.63,0,*6D